Location: Kouchibouguac National Park
(46.8081°N, 64.9088°W)
Time: 02:52:48
(UTC-04:00)

Amateur Radio Satellites - All Passes

Search period start: 13 February 2016 02:22
Search period end: 14 February 2016 02:22
Location: Kouchibouguac National Park, 46.8081°N, 64.9088°W

Satellite Date Start Highest point End Downlink Frequencies (MHz)
Time Altitude Azimuth
Gurwin Techsat 1B 13 Feb 02:24:21 02:29:37 56° 100° (E) 02:34:49 435.225
AIST 2 13 Feb 02:31:25 02:35:30 53° 49° (NE) 02:39:32 435.215
ITAMSAT 1 13 Feb 02:42:42 02:47:42 43° 98° (E) 02:52:40 435.822/435.867
DANDE 13 Feb 02:44:06 02:52:13 68° 285° (WNW) 03:00:38 436.750
ITUPSAT 1 13 Feb 02:48:07 02:51:32 19° 268° (W) 02:54:59 437.325
PHONESAT 2.4 13 Feb 02:48:15 02:51:00 25° 187° (S) 02:53:45 2401.200-2431.200
BEESAT 13 Feb 02:54:47 02:57:49 17° 270° (W) 03:00:52 436.000
YUBILEINY 13 Feb 03:04:05 03:12:45 69° 93° (E) 03:21:32 435.215
SO-50 13 Feb 03:05:02 03:06:19 11° 106° (ESE) 03:07:36 436.795
Oscar 19 13 Feb 03:06:12 03:10:33 29° 297° (WNW) 03:14:54 437.125/150
STARS 13 Feb 03:10:35 03:14:58 77° 74° (ENE) 03:19:23 437.465
JAS-2 13 Feb 03:12:21 03:17:33 38° 295° (WNW) 03:22:23 435.910
CUSAT 1 13 Feb 03:27:11 03:33:45 26° 298° (WNW) 03:40:01 437.405
KKS-1 13 Feb 03:37:22 03:41:25 33° 263° (W) 03:45:29 437.445
MOZHAYETS 4 13 Feb 03:55:20 03:59:49 56° 260° (W) 04:04:22
M-CUBED/EXP-1 PRIME 13 Feb 03:56:41 03:58:35 14° 99° (E) 04:00:32 437.505
AUBIESAT-1 13 Feb 04:03:20 04:05:16 14° 99° (E) 04:07:16 437.475
AO-7 13 Feb 04:04:12 04:12:25 58° 103° (ESE) 04:20:33 29.400- 29.500
Gurwin Techsat 1B 13 Feb 04:05:00 04:09:12 24° 299° (WNW) 04:13:24 435.225
AIST 2 13 Feb 04:10:42 04:13:38 19° 247° (WSW) 04:16:35 435.215
Cosmos 2491 13 Feb 04:11:00 04:17:20 23° 282° (WNW) 04:23:41 435.465 / 435.565
Cosmos 2504 13 Feb 04:22:07 04:30:23 51° 88° (E) 04:38:52 435.465 / 435.565
ITAMSAT 1 13 Feb 04:22:31 04:27:00 30° 297° (WNW) 04:31:29 435.822/435.867
PHONESAT 2.4 13 Feb 04:26:13 04:27:36 12° 204° (SSW) 04:29:00 2401.200-2431.200
DANDE 13 Feb 04:31:12 04:36:48 19° 306° (NW) 04:42:24 436.750
SO-50 13 Feb 04:41:03 04:45:57 74° 124° (SE) 04:50:54 436.795
CUBESAT XI-V 13 Feb 04:45:24 04:49:59 55° 72° (ENE) 04:54:37 437.345
STARS 13 Feb 04:50:11 04:51:53 12° 271° (W) 04:53:36 437.465
HORYU 2 13 Feb 04:52:11 04:56:39 70° 104° (ESE) 05:01:05 437.375
YUBILEINY 13 Feb 05:02:43 05:10:19 31° 296° (WNW) 05:17:59 435.215
STRAND 1 13 Feb 05:14:20 05:17:57 20° 59° (ENE) 05:21:37 437.568
M-CUBED/EXP-1 PRIME 13 Feb 05:30:10 05:33:26 43° 293° (WNW) 05:36:52 437.505
AUBIESAT-1 13 Feb 05:36:44 05:40:03 45° 294° (WNW) 05:43:33 437.475
BRITE-PL 13 Feb 05:56:31 05:58:56 14° 86° (E) 06:01:16 437.365/2234.400
AO-7 13 Feb 05:57:24 06:04:56 40° 304° (WNW) 06:12:24 29.400- 29.500
LilacSat-2 13 Feb 06:09:09 06:12:26 27° 95° (E) 06:15:42 437.200
Cosmos 2504 13 Feb 06:15:42 06:23:55 44° 290° (WNW) 06:32:21 435.465 / 435.565
SO-50 13 Feb 06:22:54 06:26:58 25° 325° (NW) 06:31:03 436.795
PRISM 13 Feb 06:23:33 06:26:50 23° 64° (ENE) 06:30:08 437.425
CUBESAT XI-V 13 Feb 06:24:25 06:27:44 19° 270° (W) 06:31:03 437.345
CUTE-I 13 Feb 06:25:24 06:30:38 49° 99° (E) 06:35:50 437.470
HORYU 2 13 Feb 06:30:06 06:32:41 15° 301° (WNW) 06:35:17 437.375
Cubesat XI-IV 13 Feb 06:40:13 06:45:36 65° 102° (ESE) 06:50:57 437.490
GONETS M04 13 Feb 06:41:39 06:43:52 11° 68° (ENE) 06:46:05
GOMX 1 13 Feb 06:43:20 06:46:31 20° 91° (E) 06:49:36 467.674
STRAND 1 13 Feb 06:51:34 06:56:39 66° 258° (WSW) 07:01:47 437.568
O/OREOS (USA 219) 13 Feb 07:14:32 07:18:43 40° 107° (ESE) 07:22:57 437.305
CUTE 1.7 + AOD 2 13 Feb 07:26:18 07:27:58 12° 88° (E) 07:29:38 437.475
BRITE-PL 13 Feb 07:33:22 07:38:05 67° 287° (WNW) 07:42:25 437.365/2234.400
DOVE 4 13 Feb 07:43:31 07:47:31 40° 97° (E) 07:51:26 437.250
LilacSat-2 13 Feb 07:43:34 07:46:41 25° 293° (WNW) 07:49:48 437.200
AO-7 13 Feb 07:52:41 07:55:24 12° 328° (NNW) 07:58:07 29.400- 29.500
PRISM 13 Feb 07:58:04 08:01:58 38° 262° (W) 08:05:55 437.425
CUTE-I 13 Feb 08:05:57 08:10:26 27° 298° (WNW) 08:14:53 437.470
SO-50 13 Feb 08:08:07 08:09:14 11° 348° (NNW) 08:10:20 436.795
CANX-2 13 Feb 08:10:12 08:14:13 38° 97° (E) 08:18:14 2200.000
CINEMA 3 13 Feb 08:11:15 08:14:51 28° 95° (E) 08:18:29 145.822/145.860
HO-68 13 Feb 08:12:55 08:19:45 43° 98° (E) 08:26:31 435.675
Cosmos 2504 13 Feb 08:18:20 08:20:15 11° 316° (NW) 08:22:10 435.465 / 435.565
GOMX 1 13 Feb 08:20:44 08:24:55 42° 290° (WNW) 08:28:53 467.674
Cubesat XI-IV 13 Feb 08:21:13 08:25:12 22° 301° (WNW) 08:29:11 437.490
UNISAT 6 13 Feb 08:22:21 08:23:56 12° 58° (ENE) 08:25:32 437.425
GONETS M04 13 Feb 08:30:12 08:38:36 58° 91° (E) 08:47:05
COMPASS 1 13 Feb 08:39:08 08:43:07 38° 97° (E) 08:47:04 437.405
FUNcube-1 13 Feb 08:41:18 08:42:33 11° 88° (E) 08:43:47 145.935
PCSat 13 Feb 08:51:51 08:52:55 11° 101° (E) 08:53:59 145.827
O/OREOS (USA 219) 13 Feb 08:54:26 08:58:15 27° 307° (NW) 09:02:07 437.305
SEEDS 13 Feb 08:59:49 09:04:07 85° 106° (ESE) 09:08:23 437.485
CUTE 1.7 + AOD 2 13 Feb 09:00:02 09:04:20 74° 286° (WNW) 09:08:37 437.475
AAUSAT CUBESAT 2 13 Feb 09:04:06 09:08:17 58° 100° (E) 09:12:26 437.432
ANTELSAT 13 Feb 09:04:48 09:08:30 29° 67° (ENE) 09:12:12 437.575/2403.000
Oscar 11 13 Feb 09:06:43 09:10:27 27° 95° (E) 09:14:11 145.826/435.025
TIGRISAT 13 Feb 09:10:17 09:14:05 31° 67° (ENE) 09:17:51 435.000
Cosmos 2499 13 Feb 09:12:16 09:20:37 50° 88° (E) 09:29:01 435.465 / 435.565
DOVE 4 13 Feb 09:21:51 09:25:01 21° 296° (WNW) 09:28:06 437.250
UWE-3 13 Feb 09:22:31 09:26:34 43° 99° (E) 09:30:41 435.000/436.395/437.385
POLYITAN 1 13 Feb 09:26:29 09:28:42 14° 60° (ENE) 09:30:55 437.675
QB50P2 13 Feb 09:26:49 09:29:09 15° 60° (ENE) 09:31:28 145.880/145.840
CUBEBUG 2 13 Feb 09:29:36 09:33:48 71° 103° (ESE) 09:38:05 437.445
AO-85 13 Feb 09:42:26 09:47:39 52° 120° (ESE) 09:53:00 145.980
CANX-2 13 Feb 09:46:28 09:49:54 24° 295° (WNW) 09:53:20 2200.000
CINEMA 3 13 Feb 09:48:25 09:52:01 29° 292° (WNW) 09:55:36 145.822/145.860
DELFI C3 13 Feb 09:48:48 09:52:39 40° 98° (E) 09:56:29 145.870
SO-50 13 Feb 09:50:33 09:52:01 11° 14° (NNE) 09:53:29 436.795
POPSAT HIP 1 13 Feb 09:54:15 09:57:41 25° 65° (ENE) 10:01:08 437.405
HUMSAT D 13 Feb 09:55:10 09:58:25 21° 93° (E) 10:01:41 437.325/437.525
UNISAT 6 13 Feb 09:55:45 10:00:03 85° 256° (WSW) 10:04:20 437.425
DUCHIFAT 1 13 Feb 09:56:18 09:59:42 24° 65° (ENE) 10:03:06 145.980
NANOSAT C BR1 13 Feb 09:56:30 09:59:59 25° 66° (ENE) 10:03:27 145.865
HO-68 13 Feb 10:00:45 10:07:28 44° 298° (WNW) 10:14:10 435.675
QB50P1 13 Feb 10:06:07 10:09:54 32° 68° (ENE) 10:13:40 145.935-145.965
ZACube-1 13 Feb 10:08:00 10:12:14 88° 291° (WNW) 10:16:34 437.345
FUNcube-1 13 Feb 10:15:05 10:19:19 78° 286° (WNW) 10:23:38 145.935
COMPASS 1 13 Feb 10:15:10 10:18:30 23° 295° (WNW) 10:21:49 437.405
AIST 1 13 Feb 10:27:29 10:31:53 74° 98° (E) 10:36:18
GONETS M04 13 Feb 10:28:00 10:35:51 37° 293° (WNW) 10:43:48
PCSat 13 Feb 10:29:55 10:35:18 70° 119° (ESE) 10:40:44 145.827
RS-15 13 Feb 10:32:15 10:42:25 43° 109° (ESE) 10:53:03 29.354- 29.394
VELOX 1 13 Feb 10:34:17 10:35:32 11° 87° (E) 10:36:47 145.980
SEEDS 13 Feb 10:37:34 10:39:11 12° 301° (WNW) 10:40:49 437.485
CUSAT 1 13 Feb 10:38:16 10:40:10 12° 49° (NE) 10:41:54 437.405
AAUSAT CUBESAT 2 13 Feb 10:40:46 10:43:21 16° 298° (WNW) 10:45:56 437.432
BUGSAT 1 13 Feb 10:41:13 10:45:05 37° 69° (ENE) 10:48:55 437.445
ANTELSAT 13 Feb 10:41:28 10:45:12 29° 264° (W) 10:48:57 437.575/2403.000
Oscar 11 13 Feb 10:42:43 10:46:37 32° 292° (WNW) 10:50:30 145.826/435.025
UKube-1 13 Feb 10:43:04 10:44:48 12° 89° (E) 10:46:33 .
TIGRISAT 13 Feb 10:47:09 10:50:48 27° 265° (W) 10:54:26 435.000
AISAT 13 Feb 10:50:14 10:53:11 17° 91° (E) 10:56:05 437.250
50 SAT 13 Feb 10:51:32 10:54:18 19° 93° (E) 10:57:03 437.505
CUBEBUG 1 13 Feb 10:58:53 11:01:48 17° 91° (E) 11:04:41 437.445
UWE-3 13 Feb 10:59:40 11:02:48 21° 296° (WNW) 11:05:59 435.000/436.395/437.385
POLYITAN 1 13 Feb 10:59:48 11:04:00 69° 258° (WSW) 11:08:14 437.675
QB50P2 13 Feb 11:00:15 11:04:28 67° 258° (WSW) 11:08:42 145.880/145.840
DX 1 13 Feb 11:00:34 11:03:58 22° 93° (E) 11:07:19 434.975-435.025
Cosmos 2499 13 Feb 11:05:32 11:13:52 44° 290° (WNW) 11:22:16 435.465 / 435.565
CUBEBUG 2 13 Feb 11:07:50 11:09:57 14° 299° (WNW) 11:12:04 437.445
Oscar 19 13 Feb 11:10:07 11:12:43 14° 55° (NE) 11:15:17 437.125/150
AO-85 13 Feb 11:23:26 11:28:27 35° 320° (NW) 11:33:29 145.980
DELFI C3 13 Feb 11:24:20 11:27:20 20° 296° (WNW) 11:30:19 145.870
ESTCUBE 1 13 Feb 11:26:18 11:30:40 43° 99° (E) 11:34:59 437.505/2401.250
POPSAT HIP 1 13 Feb 11:29:28 11:33:21 35° 263° (W) 11:37:14 437.405
SO-50 13 Feb 11:29:58 11:34:11 28° 37° (NE) 11:38:17 436.795
HUMSAT D 13 Feb 11:30:18 11:34:12 38° 290° (WNW) 11:38:07 437.325/437.525
DUCHIFAT 1 13 Feb 11:31:24 11:35:16 35° 263° (W) 11:39:10 145.980
NANOSAT C BR1 13 Feb 11:31:46 11:35:36 33° 263° (W) 11:39:27 145.865
DANDE 13 Feb 11:41:16 11:46:58 26° 59° (ENE) 11:51:35 436.750
JAS-2 13 Feb 11:41:49 11:47:42 27° 60° (ENE) 11:53:06 435.910
QB50P1 13 Feb 11:42:09 11:45:43 26° 265° (W) 11:49:17 145.935-145.965
ZACube-1 13 Feb 11:46:47 11:47:53 11° 302° (WNW) 11:49:01 437.345
HO-68 13 Feb 11:51:33 11:53:24 11° 320° (NW) 11:55:14 435.675
AIST 1 13 Feb 12:08:02 12:10:04 13° 296° (WNW) 12:12:06
VELOX 1 13 Feb 12:08:11 12:12:37 83° 286° (WNW) 12:17:01 145.980
Gurwin Techsat 1B 13 Feb 12:10:41 12:14:20 19° 58° (ENE) 12:17:59 435.225
PCSat 13 Feb 12:14:43 12:19:13 26° 320° (NW) 12:23:45 145.827
TISAT 1 13 Feb 12:15:11 12:17:36 15° 90° (E) 12:20:01 437.305
UKube-1 13 Feb 12:17:03 12:21:24 74° 286° (WNW) 12:25:41 .
BUGSAT 1 13 Feb 12:17:20 12:20:36 22° 266° (W) 12:23:51 437.445
CUSAT 1 13 Feb 12:18:19 12:24:06 72° 77° (ENE) 12:28:21 437.405
SPROUT 13 Feb 12:19:44 12:23:50 43° 99° (E) 12:27:53 437.525
50 SAT 13 Feb 12:24:56 12:28:27 36° 290° (WNW) 12:31:58 437.505
AISAT 13 Feb 12:25:42 12:30:01 53° 289° (WNW) 12:34:16 437.250
ITAMSAT 1 13 Feb 12:27:09 12:29:58 15° 55° (NE) 12:32:47 435.822/435.867
CUBEBUG 1 13 Feb 12:34:10 12:38:25 51° 289° (WNW) 12:42:37 437.445
DX 1 13 Feb 12:36:13 12:40:20 41° 291° (WNW) 12:44:23 434.975-435.025
RS-15 13 Feb 12:43:03 12:54:16 68° 314° (NW) 13:06:11 29.354- 29.394
Oscar 19 13 Feb 12:46:03 12:51:15 83° 74° (ENE) 12:56:26 437.125/150
ESTCUBE 1 13 Feb 13:03:39 13:07:14 23° 296° (WNW) 13:10:49 437.505/2401.250
AO-85 13 Feb 13:07:42 13:10:35 14° 342° (NNW) 13:13:25 145.980
Cosmos 2499 13 Feb 13:07:43 13:09:50 11° 315° (NW) 13:11:57 435.465 / 435.565
ITUPSAT 1 13 Feb 13:08:41 13:10:06 11° 87° (E) 13:11:32 437.325
SO-50 13 Feb 13:10:16 13:15:01 58° 239° (WSW) 13:19:36 436.795
YUBILEINY 13 Feb 13:10:46 13:18:59 40° 68° (ENE) 13:27:07 435.215
BEESAT 13 Feb 13:13:51 13:16:04 13° 88° (E) 13:18:17 436.000
AO-7 13 Feb 13:15:57 13:22:34 27° 49° (NE) 13:29:10 29.400- 29.500
DANDE 13 Feb 13:23:54 13:30:40 60° 267° (W) 13:35:44 436.750
Cosmos 2491 13 Feb 13:24:23 13:30:11 20° 76° (ENE) 13:35:58 435.465 / 435.565
JAS-2 13 Feb 13:24:47 13:32:17 72° 257° (WSW) 13:39:02 435.910
VELOX 1 13 Feb 13:47:04 13:48:22 11° 304° (WNW) 13:49:39 145.980
Gurwin Techsat 1B 13 Feb 13:48:25 13:53:43 73° 257° (WSW) 13:59:04 435.225
TISAT 1 13 Feb 13:49:32 13:53:38 56° 288° (WNW) 13:57:42 437.305
ISS 13 Feb 13:53:40 13:54:55 12° 133° (SE) 13:56:09 145.825
SPROUT 13 Feb 13:56:21 13:59:33 21° 296° (WNW) 14:02:44 437.525
CUSAT 1 13 Feb 14:02:32 14:05:08 14° 283° (WNW) 14:07:26 437.405
ITAMSAT 1 13 Feb 14:03:28 14:08:40 86° 75° (ENE) 14:13:56 435.822/435.867
SWISSCUBE 13 Feb 14:04:58 14:09:34 43° 99° (E) 14:14:07 437.505
Cosmos 2504 13 Feb 14:12:00 14:18:32 23° 58° (ENE) 14:24:46 435.465 / 435.565
HORYU 2 13 Feb 14:19:35 14:21:22 12° 57° (ENE) 14:23:10 437.375
Oscar 19 13 Feb 14:28:30 14:31:13 14° 272° (W) 14:33:57 437.125/150
ITUPSAT 1 13 Feb 14:43:48 14:48:39 88° 100° (E) 14:53:29 437.325
M-CUBED/EXP-1 PRIME 13 Feb 14:46:06 14:49:11 30° 64° (ENE) 14:52:10 437.505
BEESAT 13 Feb 14:49:38 14:54:28 81° 285° (WNW) 14:59:16 436.000
AO-85 13 Feb 14:51:38 14:53:29 12° 7° (N) 14:55:18 145.980
AUBIESAT-1 13 Feb 14:52:18 14:55:22 29° 64° (ENE) 14:58:20 437.475
RS-15 13 Feb 14:59:05 15:09:24 35° 346° (NNW) 15:20:12 29.354- 29.394
STARS 13 Feb 14:59:34 15:00:47 11° 88° (E) 15:02:01 437.465
AO-7 13 Feb 15:06:02 15:14:26 87° 251° (WSW) 15:22:52 29.400- 29.500
YUBILEINY 13 Feb 15:07:34 15:16:04 53° 271° (W) 15:24:29 435.215
JAS-2 13 Feb 15:14:36 15:18:13 14° 274° (W) 15:21:43 435.910
Cosmos 2491 13 Feb 15:17:00 15:25:43 88° 99° (E) 15:34:30 435.465 / 435.565
KKS-1 13 Feb 15:25:01 15:29:07 36° 97° (E) 15:33:12 437.445
ISS 13 Feb 15:27:36 15:30:50 69° 152° (SSE) 15:34:04 145.825
Gurwin Techsat 1B 13 Feb 15:34:11 15:34:36 10° 275° (W) 15:35:02 435.225
O/OREOS (USA 219) 13 Feb 15:42:42 15:46:01 19° 49° (NE) 15:49:20 437.305
SWISSCUBE 13 Feb 15:43:12 15:47:10 26° 297° (WNW) 15:51:06 437.505
BEESAT 2 13 Feb 15:44:44 15:46:35 13° 110° (ESE) 15:48:26 435.950
ITAMSAT 1 13 Feb 15:46:18 15:48:51 14° 272° (W) 15:51:25 435.822/435.867
MOZHAYETS 4 13 Feb 15:47:37 15:51:37 28° 94° (E) 15:55:36
HORYU 2 13 Feb 15:52:51 15:57:16 89° 251° (WSW) 16:01:44 437.375
Cosmos 2504 13 Feb 16:04:36 16:13:17 90° 276° (W) 16:21:19 435.465 / 435.565
CUTE-I 13 Feb 16:12:39 16:16:07 18° 57° (ENE) 16:19:36 437.470
M-CUBED/EXP-1 PRIME 13 Feb 16:21:25 16:23:56 18° 259° (W) 16:26:22 437.505
ITUPSAT 1 13 Feb 16:23:19 16:25:49 14° 303° (WNW) 16:28:19 437.325
Cubesat XI-IV 13 Feb 16:26:55 16:30:59 23° 60° (ENE) 16:35:05 437.490
AUBIESAT-1 13 Feb 16:27:27 16:30:01 19° 259° (W) 16:32:31 437.475
BEESAT 13 Feb 16:29:32 16:31:29 12° 305° (NW) 16:33:26 436.000
AO-85 13 Feb 16:31:49 16:36:01 23° 32° (NNE) 16:40:00 145.980
STARS 13 Feb 16:33:22 16:37:45 82° 288° (WNW) 16:42:07 437.465
CUBESAT XI-V 13 Feb 16:41:27 16:42:53 11° 86° (E) 16:44:18 437.345
BEESAT 3 13 Feb 16:48:15 16:52:14 83° 125° (SE) 16:56:15 437.485
LilacSat-2 13 Feb 16:54:22 16:57:20 22° 66° (ENE) 17:00:18 437.200
KKS-1 13 Feb 17:01:52 17:05:33 26° 295° (WNW) 17:09:13 437.445
AO-7 13 Feb 17:02:29 17:08:20 21° 271° (W) 17:14:14 29.400- 29.500
HO-68 13 Feb 17:03:19 17:05:13 11° 40° (NE) 17:07:08 435.675
ISS 13 Feb 17:04:23 17:07:27 38° 350° (N) 17:10:31 145.825
BRITE-PL 13 Feb 17:08:22 17:13:05 29° 65° (ENE) 17:17:38 437.365/2234.400
YUBILEINY 13 Feb 17:10:02 17:10:38 10° 293° (WNW) 17:11:13 435.215
RS-15 13 Feb 17:15:17 17:26:07 37° 20° (NNE) 17:37:15 29.354- 29.394
Cosmos 2491 13 Feb 17:17:08 17:23:49 24° 301° (WNW) 17:30:33 435.465 / 435.565
BEESAT 2 13 Feb 17:19:55 17:23:56 74° 308° (NW) 17:27:58 435.950
O/OREOS (USA 219) 13 Feb 17:21:19 17:25:53 64° 249° (WSW) 17:30:25 437.305
MOZHAYETS 4 13 Feb 17:24:36 17:28:51 36° 292° (WNW) 17:33:05
PCSat 13 Feb 17:32:06 17:36:27 24° 38° (NE) 17:40:47 145.827
CUTE-I 13 Feb 17:50:11 17:55:32 80° 256° (WSW) 18:00:55 437.470
GOMX 1 13 Feb 17:53:03 17:57:49 35° 68° (ENE) 18:02:20 467.674
Cosmos 2504 13 Feb 17:59:36 18:05:21 21° 285° (WNW) 18:10:54 435.465 / 435.565
Cubesat XI-IV 13 Feb 18:05:23 18:10:39 60° 259° (WSW) 18:15:58 437.490
AIST 2 13 Feb 18:09:43 18:13:39 41° 119° (ESE) 18:17:36 435.215
AO-85 13 Feb 18:12:02 18:17:19 89° 232° (SW) 18:22:07 145.980
STARS 13 Feb 18:12:16 18:13:24 11° 304° (WNW) 18:14:30 437.465
CUBESAT XI-V 13 Feb 18:16:12 18:20:57 89° 295° (WNW) 18:25:38 437.345
CUTE 1.7 + AOD 2 13 Feb 18:22:05 18:24:10 14° 60° (ENE) 18:26:15 437.475
SEEDS 13 Feb 18:22:36 18:23:18 10° 57° (ENE) 18:23:59 437.485
BEESAT 3 13 Feb 18:27:48 18:30:31 17° 325° (NW) 18:33:14 437.485
LilacSat-2 13 Feb 18:28:05 18:31:31 32° 264° (W) 18:34:57 437.200
GONETS M04 13 Feb 18:36:41 18:44:32 34° 66° (ENE) 18:52:20
ISS 13 Feb 18:41:17 18:44:21 37° 10° (N) 18:47:25 145.825
HO-68 13 Feb 18:44:27 18:51:09 44° 62° (ENE) 18:57:53 435.675
BRITE-PL 13 Feb 18:45:51 18:51:19 49° 262° (W) 18:56:35 437.365/2234.400
DOVE 4 13 Feb 18:51:01 18:55:55 62° 73° (ENE) 19:00:33 437.250
CUBEBUG 2 13 Feb 18:58:40 18:58:44 10° 58° (ENE) 18:58:49 437.445
STRAND 1 13 Feb 18:59:16 19:03:58 34° 96° (E) 19:08:37 437.568
BEESAT 2 13 Feb 19:00:12 19:02:31 15° 328° (NNW) 19:04:52 435.950
Cosmos 2499 13 Feb 19:01:03 19:07:13 22° 57° (ENE) 19:13:03 435.465 / 435.565
CANX-2 13 Feb 19:05:42 19:09:36 38° 70° (ENE) 19:13:34 2200.000
PCSat 13 Feb 19:15:01 19:20:29 80° 239° (WSW) 19:25:54 145.827
CINEMA 3 13 Feb 19:15:28 19:19:37 38° 70° (ENE) 19:23:38 145.822/145.860
RS-15 13 Feb 19:28:44 19:40:54 76° 50° (NE) 19:53:16 29.354- 29.394
GOMX 1 13 Feb 19:31:03 19:35:52 34° 264° (W) 19:40:28 467.674
COMPASS 1 13 Feb 19:32:41 19:36:32 37° 69° (ENE) 19:40:24 437.405
ZACube-1 13 Feb 19:33:22 19:35:00 12° 59° (ENE) 19:36:37 437.345
CUTE-I 13 Feb 19:34:44 19:36:27 11° 274° (W) 19:38:10 437.470
PRISM 13 Feb 19:37:08 19:40:29 23° 94° (E) 19:43:48 437.425
FUNcube-1 13 Feb 19:39:46 19:41:47 13° 60° (ENE) 19:43:47 145.935
AIST 2 13 Feb 19:48:39 19:52:17 28° 319° (NW) 19:55:56 435.215
SEEDS 13 Feb 19:54:06 19:58:17 84° 76° (ENE) 20:02:32 437.485
AO-85 13 Feb 19:54:27 19:56:57 14° 254° (WSW) 19:59:22 145.980
CUTE 1.7 + AOD 2 13 Feb 19:55:15 19:59:27 73° 257° (WSW) 20:03:43 437.475
CUBESAT XI-V 13 Feb 19:55:30 19:57:38 13° 303° (WNW) 19:59:44 437.345
AAUSAT CUBESAT 2 13 Feb 19:57:00 20:01:03 56° 73° (ENE) 20:05:09 437.432
Oscar 11 13 Feb 20:04:13 20:07:58 30° 67° (ENE) 20:11:46 145.826/435.025
ISS 13 Feb 20:17:45 20:20:59 72° 209° (SSW) 20:24:12 145.825
UWE-3 13 Feb 20:22:19 20:26:23 49° 72° (ENE) 20:30:25 435.000/436.395/437.385
CUBEBUG 2 13 Feb 20:30:25 20:34:42 83° 74° (ENE) 20:38:53 437.445
DOVE 4 13 Feb 20:30:42 20:33:58 17° 269° (W) 20:37:08 437.250
AIST 1 13 Feb 20:32:01 20:35:38 25° 71° (ENE) 20:39:11
HO-68 13 Feb 20:32:08 20:38:53 43° 262° (W) 20:45:42 435.675
GONETS M04 13 Feb 20:33:17 20:41:56 63° 268° (W) 20:50:35
DELFI C3 13 Feb 20:37:50 20:41:29 35° 69° (ENE) 20:45:10 145.870
STRAND 1 13 Feb 20:38:27 20:43:09 36° 294° (WNW) 20:47:49 437.568
CANX-2 13 Feb 20:42:20 20:45:37 22° 267° (W) 20:48:56 2200.000
HUMSAT D 13 Feb 20:49:37 20:52:47 22° 65° (ENE) 20:55:57 437.325/437.525
CINEMA 3 13 Feb 20:53:16 20:56:53 23° 266° (W) 21:00:25 145.822/145.860
Cosmos 2499 13 Feb 20:53:18 21:01:45 88° 78° (ENE) 21:09:30 435.465 / 435.565
PCSat 13 Feb 21:00:44 21:03:00 13° 258° (WSW) 21:05:15 145.827
ZACube-1 13 Feb 21:06:33 21:10:44 79° 259° (W) 21:14:54 437.345
COMPASS 1 13 Feb 21:09:00 21:12:14 22° 267° (W) 21:15:31 437.405
PRISM 13 Feb 21:12:05 21:15:56 36° 292° (WNW) 21:19:44 437.425
FUNcube-1 13 Feb 21:13:23 21:17:31 70° 258° (WSW) 21:21:40 145.935
VELOX 1 13 Feb 21:33:47 21:36:31 16° 60° (ENE) 21:39:16 145.980
AAUSAT CUBESAT 2 13 Feb 21:34:33 21:36:56 15° 270° (W) 21:39:20 437.432
50 SAT 13 Feb 21:35:14 21:37:26 15° 63° (ENE) 21:39:39 437.505
UKube-1 13 Feb 21:40:06 21:42:52 17° 61° (ENE) 21:45:38 .
Oscar 11 13 Feb 21:40:22 21:44:06 29° 265° (W) 21:47:52 145.826/435.025
RS-15 13 Feb 21:41:52 21:52:33 38° 253° (WSW) 22:03:21 29.354- 29.394
UNISAT 6 13 Feb 21:45:26 21:48:10 16° 91° (E) 21:50:54 437.425
AISAT 13 Feb 21:50:17 21:53:49 23° 64° (ENE) 21:57:22 437.250
ISS 13 Feb 21:55:31 21:56:55 12° 226° (SW) 21:58:19 145.825
CUBEBUG 1 13 Feb 21:57:31 22:00:56 22° 64° (ENE) 22:04:21 437.445
DX 1 13 Feb 21:58:41 22:02:26 28° 66° (ENE) 22:06:12 434.975-435.025
UWE-3 13 Feb 22:00:27 22:03:09 17° 269° (W) 22:05:51 435.000/436.395/437.385
AIST 1 13 Feb 22:09:24 22:13:17 33° 270° (W) 22:17:09
DELFI C3 13 Feb 22:13:25 22:16:30 21° 267° (W) 22:19:38 145.870
HUMSAT D 13 Feb 22:24:27 22:28:14 37° 263° (W) 22:32:03 437.325/437.525
ESTCUBE 1 13 Feb 22:28:22 22:32:48 56° 72° (ENE) 22:37:17 437.505/2401.250
ANTELSAT 13 Feb 22:29:18 22:33:29 43° 99° (E) 22:37:44 437.575/2403.000
GONETS M04 13 Feb 22:33:19 22:36:51 13° 290° (WNW) 22:40:24
TIGRISAT 13 Feb 22:34:38 22:38:51 46° 99° (E) 22:43:08 435.000
POLYITAN 1 13 Feb 22:43:06 22:45:38 15° 91° (E) 22:48:11 437.675
QB50P2 13 Feb 22:43:27 22:46:05 16° 91° (E) 22:48:43 145.880/145.840
Cosmos 2499 13 Feb 22:48:01 22:53:37 20° 284° (WNW) 22:58:58 435.465 / 435.565
50 SAT 13 Feb 23:07:30 23:11:05 48° 260° (W) 23:14:44 437.505
VELOX 1 13 Feb 23:08:04 23:12:31 66° 258° (WSW) 23:16:58 145.980
TISAT 1 13 Feb 23:09:48 23:12:37 18° 62° (ENE) 23:15:28 437.305
POPSAT HIP 1 13 Feb 23:11:16 23:14:57 29° 96° (E) 23:18:38 437.405
DUCHIFAT 1 13 Feb 23:12:38 23:16:16 28° 95° (E) 23:19:52 145.980
NANOSAT C BR1 13 Feb 23:13:09 23:16:51 29° 96° (E) 23:20:33 145.865
UKube-1 13 Feb 23:14:12 23:18:29 60° 259° (WSW) 23:22:49 .
SPROUT 13 Feb 23:16:02 23:20:09 48° 71° (ENE) 23:24:18 437.525
UNISAT 6 13 Feb 23:20:57 23:25:14 57° 288° (WNW) 23:29:35 437.425
QB50P1 13 Feb 23:23:18 23:27:16 39° 98° (E) 23:31:12 145.935-145.965
AISAT 13 Feb 23:25:52 23:30:06 42° 261° (W) 23:34:21 437.250
BEESAT 3 13 Feb 23:26:14 23:29:13 20° 37° (NE) 23:32:10 437.485
Cosmos 2491 13 Feb 23:29:31 23:32:52 12° 47° (NE) 23:36:13 435.465 / 435.565
CUBEBUG 1 13 Feb 23:32:44 23:36:58 44° 261° (W) 23:41:14 437.445
DX 1 13 Feb 23:34:36 23:38:33 32° 263° (W) 23:42:32 434.975-435.025
SWISSCUBE 13 Feb 23:41:00 23:41:54 10° 54° (NE) 23:42:48 437.505
CUSAT 1 13 Feb 23:43:10 23:47:48 17° 79° (E) 23:52:18 437.405
BUGSAT 1 13 Feb 23:55:19 23:59:10 41° 99° (E) 00:02:58 437.445
BEESAT 2 13 Feb 23:58:16 00:01:36 24° 40° (NE) 00:04:55 435.950
ANTELSAT 14 Feb 00:06:37 00:09:59 22° 296° (WNW) 00:13:23 437.575/2403.000
ESTCUBE 1 14 Feb 00:07:00 00:09:59 17° 269° (W) 00:13:00 437.505/2401.250
TIGRISAT 14 Feb 00:12:03 00:15:17 21° 296° (WNW) 00:18:32 435.000
PHONESAT 2.4 14 Feb 00:16:56 00:19:27 20° 166° (SSE) 00:21:59 2401.200-2431.200
ITUPSAT 1 14 Feb 00:17:16 00:20:41 20° 60° (ENE) 00:24:07 437.325
POLYITAN 1 14 Feb 00:17:41 00:21:49 54° 288° (WNW) 00:25:55 437.675
QB50P2 14 Feb 00:18:07 00:22:14 52° 289° (WNW) 00:26:20 145.880/145.840
BEESAT 14 Feb 00:22:30 00:26:08 22° 62° (ENE) 00:29:47 436.000
JAS-2 14 Feb 00:35:14 00:36:25 11° 83° (E) 00:37:36 435.910
TISAT 1 14 Feb 00:43:49 00:47:56 52° 260° (W) 00:52:04 437.305
POPSAT HIP 1 14 Feb 00:47:04 00:50:43 29° 293° (WNW) 00:54:20 437.405
DUCHIFAT 1 14 Feb 00:48:19 00:51:58 30° 293° (WNW) 00:55:36 145.980
NANOSAT C BR1 14 Feb 00:48:58 00:52:33 28° 294° (WNW) 00:56:09 145.865
DANDE 14 Feb 00:50:41 00:57:37 32° 84° (E) 01:04:41 436.750
AIST 2 14 Feb 00:50:50 00:53:13 15° 31° (NNE) 00:55:34 435.215
SPROUT 14 Feb 00:53:26 00:56:24 18° 268° (W) 00:59:23 437.525
Oscar 19 14 Feb 00:55:20 00:59:24 23° 92° (E) 01:03:24 437.125/150
QB50P1 14 Feb 00:59:35 01:02:51 22° 296° (WNW) 01:06:07 145.935-145.965
BEESAT 3 14 Feb 01:03:25 01:07:21 65° 237° (WSW) 01:11:15 437.485
SWISSCUBE 14 Feb 01:14:05 01:18:48 68° 73° (ENE) 01:23:34 437.505
CUSAT 1 14 Feb 01:20:53 01:28:59 71° 97° (E) 01:36:37 437.405
Cosmos 2491 14 Feb 01:23:46 01:32:18 52° 73° (ENE) 01:40:47 435.465 / 435.565
BUGSAT 1 14 Feb 01:31:22 01:34:18 20° 296° (WNW) 01:37:13 437.445
BEESAT 2 14 Feb 01:35:51 01:39:43 46° 239° (WSW) 01:43:31 435.950
PHONESAT 2.4 14 Feb 01:53:22 01:56:12 26° 183° (S) 01:59:01 2401.200-2431.200
ITUPSAT 1 14 Feb 01:53:24 01:58:07 59° 259° (W) 02:02:53 437.325
STARS 14 Feb 01:58:26 02:01:06 16° 60° (ENE) 02:03:46 437.465
BEESAT 14 Feb 01:58:58 02:03:36 51° 260° (W) 02:08:17 436.000
Gurwin Techsat 1B 14 Feb 02:01:50 02:06:43 36° 96° (E) 02:11:35 435.225
ITAMSAT 1 14 Feb 02:13:55 02:18:11 25° 93° (E) 02:22:25 435.822/435.867
